Theta_e
310 310 310 310 310 311 311 311 311 311 312 312 312 312 312 312 312 313 313 313 312 312 314 315 315 315 315 316 317 317 320 320 319 319 319 317 318 315 316 316 315 317 318 318 318
310 310 310 310 311 311 311 311 311 312 312 312 312 313 313 313 313 313 313 313 312 311 313 314 314 314 317 317 317 319 320 319 318 318 318 317 316 317 316 317 318 317 317 317 317
310 311 311 311 311 312 312 312 312 312 312 312 312 313 313 313 314 313 313 313 312 313 313 314 314 314 316 317 318 318 319 319 316 315 314 315 316 315 317 318 318 317 317 317 317
312 312 312 312 312 311 311 311 311 312 311 312 311 311 312 313 315 313 314 313 313 313 313 313 314 316 317 318 317 318 317 317 317 315 315 316 316 316 316 316 316 316 316 316 315
312 311 311 310 310 310 310 311 311 311 311 312 311 311 309 310 313 314 314 314 313 313 313 313 314 315 317 316 315 317 317 316 316 315 315 315 316 317 316 315 315 315 314 314 314
308 309 309 309 310 311 312 313 314 314 315 316 316 315 313 309 311 313 314 314 313 312 312 313 314 314 314 314 315 314 314 315 314 314 315 315 315 313 315 314 314 314 313 314 313
311 312 312 313 313 313 313 314 314 314 314 314 312 313 314 316 314 312 312 312 312 312 313 313 313 313 313 314 313 313 315 315 315 313 314 313 315 315 314 314 313 314 314 314 314
314 314 314 314 314 315 315 315 316 316 317 317 315 309 311 315 316 315 312 310 311 312 313 313 313 312 313 312 313 313 313 315 315 311 312 314 315 316 314 312 313 314 314 313 313
315 316 317 318 319 320 321 321 321 321 320 319 315 309 310 312 312 313 312 310 310 312 312 312 312 312 311 313 314 313 315 315 314 312 313 314 315 315 313 313 313 313 313 313 313
319 320 321 321 322 322 322 322 322 320 317 315 311 310 312 311 312 313 312 311 310 311 311 311 312 313 312 313 316 317 315 314 313 314 312 312 313 313 313 312 312 313 313 313 313
321 321 322 323 323 324 324 323 321 319 317 318 318 317 317 316 314 312 312 310 311 311 313 311 313 314 315 314 315 313 313 314 314 314 313 313 314 313 313 312 313 313 313 313 313
322 322 323 324 324 323 323 322 322 319 316 322 322 321 318 314 314 312 311 311 311 313 310 312 313 314 313 310 311 313 313 314 314 313 310 313 313 313 313 313 313 313 313 313 313
322 322 324 324 324 323 322 322 322 319 315 317 315 315 315 314 314 313 311 311 312 311 311 315 317 311 311 312 312 313 312 313 314 313 312 311 315 314 316 312 313 313 312 312 311
322 323 322 321 322 323 322 322 319 320 321 318 311 309 308 309 308 308 310 310 310 312 311 312 311 310 310 311 312 313 313 312 311 312 315 311 317 317 317 315 316 314 313 310 310
323 322 323 322 323 322 322 319 318 316 326 314 308 310 309 308 308 309 309 309 311 311 311 314 310 310 311 312 310 313 309 310 310 312 312 314 314 318 312 316 314 313 310 310 310
322 322 323 322 321 322 321 319 318 321 326 318 308 310 310 309 308 309 309 309 309 309 309 310 307 309 311 309 309 308 310 310 309 311 317 318 316 318 316 314 314 312 310 309 309
321 321 321 321 321 322 320 319 321 323 319 319 312 309 309 309 309 309 311 311 317 318 317 316 315 310 307 310 308 309 312 320 322 320 321 312 315 316 316 313 312 312 310 308 305
320 320 321 321 321 321 320 318 322 320 320 318 312 310 318 312 313 310 311 317 310 314 316 316 317 310 309 312 316 314 314 320 324 323 322 319 320 319 315 313 309 308 305 304 303
315 315 316 318 319 319 318 321 320 320 318 319 318 319 320 315 315 314 315 318 318 311 316 317 317 309 307 310 311 312 312 312 314 317 318 318 317 316 312 311 308 307 306 304 302
312 312 312 312 312 315 315 315 317 317 317 317 320 319 319 318 318 315 317 312 312 309 309 315 319 316 313 306 307 310 309 314 314 319 320 317 316 315 314 311 308 307 304 302 300
306 306 306 307 309 313 314 314 314 315 316 317 317 318 317 317 316 316 315 315 313 308 308 313 314 316 312 311 315 310 310 310 312 316 318 317 315 314 311 307 306 304 300 299 297
304 306 304 308 312 311 312 311 310 311 312 315 314 316 316 315 314 314 315 314 312 312 314 313 314 316 314 313 311 312 313 314 316 316 314 314 316 313 310 304 301 300 297 295 294
300 302 307 311 310 311 310 310 310 310 310 310 311 313 313 313 312 312 311 308 309 312 313 312 314 316 316 312 309 312 312 312 313 311 315 317 317 311 309 307 298 298 295 294 293
298 302 305 307 308 307 308 308 309 307 309 309 310 310 310 309 310 310 310 310 307 305 305 308 309 314 315 313 312 312 311 311 310 312 312 312 311 308 306 305 297 295 294 293 293
297 299 301 306 306 307 305 305 306 306 306 305 307 308 308 307 307 308 307 305 302 299 301 305 308 307 307 307 304 305 304 304 304 304 306 305 304 304 304 297 294 292 291 291 292
296 297 297 298 299 302 304 305 304 304 303 304 304 303 302 304 305 305 301 302 303 298 299 298 304 301 301 301 302 302 301 301 300 300 300 300 300 298 295 293 293 291 290 290 291
294 294 295 295 297 300 300 302 299 300 296 298 297 298 298 299 298 298 297 296 298 298 298 297 299 299 300 299 297 298 299 299 299 299 298 297 297 295 293 291 291 290 290 290 290
Wind_Speed
4 4 4 5 5 5 6 6 6 6 6 7 7 8 9 10 12 14 17 13 9 10 9 8 8 6 5 4 4 5 4 5 4 5 2 4 4 4 5 9 8 11 15 15 18
5 6 6 6 7 7 7 8 9 9 9 9 10 11 11 12 16 18 11 7 6 6 9 10 9 8 3 3 3 6 4 5 4 6 5 5 6 9 6 14 20 18 22 22 22
8 8 8 9 9 9 10 11 11 12 12 12 12 14 14 14 17 2 4 4 3 3 8 11 10 9 5 4 7 4 6 7 8 14 9 8 10 8 12 14 21 20 15 14 21
10 11 11 11 11 12 12 13 14 14 14 14 14 15 16 12 7 3 5 5 8 8 12 12 10 5 5 6 7 6 14 14 6 6 5 8 9 12 16 31 30 26 24 20 28
12 13 13 14 14 13 14 15 15 15 15 15 15 16 15 9 16 18 17 15 13 11 14 14 11 8 7 6 5 9 13 12 13 12 15 17 26 20 25 33 32 27 27 25 22
13 13 14 14 14 15 15 16 16 17 17 16 15 16 15 11 12 10 10 11 10 12 14 15 7 12 4 6 8 4 10 16 13 17 16 11 30 4 20 16 22 20 24 23 23
13 12 12 12 12 13 14 16 16 16 16 16 15 16 18 23 17 14 17 14 12 13 15 17 16 7 3 4 5 6 12 16 16 10 9 10 13 15 26 17 22 20 18 24 29
12 11 11 10 10 11 13 15 16 16 14 14 13 12 12 18 17 16 18 20 14 13 15 13 14 12 5 2 3 6 4 9 3 7 3 10 17 20 10 7 16 26 31 30 32
9 8 8 8 9 10 11 13 15 15 14 12 10 7 9 12 10 10 12 12 11 14 13 10 11 6 3 6 7 6 11 13 10 6 3 11 12 14 12 18 34 37 35 34 32
8 7 7 7 8 9 10 12 13 11 7 5 4 3 11 7 7 7 6 7 7 11 7 6 3 6 2 7 11 12 10 10 10 7 8 13 20 21 35 28 35 38 37 28 25
8 7 7 7 8 10 11 10 5 4 2 5 11 14 23 19 18 10 5 9 8 7 8 4 8 11 18 18 18 14 16 21 21 19 19 21 21 21 30 31 36 36 33 19 17
10 9 8 7 7 9 9 2 4 5 10 16 23 26 27 18 8 6 6 8 6 7 5 4 12 16 7 6 10 16 19 21 20 15 5 18 24 23 23 25 31 31 26 19 17
13 12 11 10 9 8 3 6 8 10 5 10 10 8 6 8 8 7 10 7 6 7 10 17 12 4 10 14 16 16 14 18 22 19 15 12 13 2 11 9 21 8 17 12 8
15 15 15 12 10 5 3 4 10 10 4 3 0 1 1 3 3 1 9 4 2 5 6 9 5 6 4 10 10 15 11 15 14 6 9 8 11 10 11 12 12 10 12 15 18
19 15 12 8 6 6 3 4 8 4 6 2 1 1 3 2 7 3 5 3 3 3 3 4 1 2 6 8 7 5 2 3 5 9 10 6 7 2 3 5 7 14 16 15 16
11 12 9 11 10 9 8 1 6 1 7 1 3 3 3 3 4 8 5 5 3 3 3 11 2 4 4 3 5 1 4 4 2 4 9 10 9 2 2 3 4 2 9 15 17
15 15 12 13 12 13 11 3 2 5 0 4 3 2 1 4 4 2 5 7 5 4 9 12 14 4 5 5 4 3 5 7 6 5 10 4 4 7 9 6 5 3 14 20 20
13 14 14 14 13 10 12 1 9 8 5 1 2 4 4 4 2 3 3 5 1 4 7 7 15 9 8 8 7 10 11 7 6 10 16 11 9 5 7 4 13 22 21 26 28
10 9 11 12 11 10 3 7 2 6 3 3 0 7 8 2 3 3 4 11 6 12 7 6 12 1 5 5 4 4 8 3 2 3 7 11 19 15 5 9 18 21 23 24 24
12 11 14 11 10 9 3 7 6 6 3 1 5 6 5 3 4 3 6 3 2 6 4 3 10 10 7 3 4 7 3 3 3 5 9 13 21 14 11 7 8 11 15 18 21
11 5 8 15 15 13 5 6 4 10 14 7 12 15 16 12 10 14 10 4 6 2 6 4 7 7 2 7 14 5 6 6 4 5 6 13 15 2 9 6 6 8 11 14 15
10 3 9 20 9 5 8 5 3 2 7 6 2 8 9 6 11 11 13 9 4 1 9 12 5 10 22 17 7 6 11 14 8 9 9 13 19 18 8 10 8 5 4 5 7
10 6 14 24 6 7 3 3 5 4 6 3 4 7 4 4 4 9 10 3 8 2 2 4 4 6 7 7 2 5 8 13 12 4 16 17 4 3 8 9 10 4 4 6 9
9 3 7 15 8 5 8 7 6 4 8 10 6 7 4 8 8 8 6 2 3 4 6 3 3 6 10 12 13 10 8 8 5 7 16 17 24 20 20 23 10 7 6 7 9
7 4 5 6 9 9 8 2 6 4 2 1 1 4 2 3 2 7 4 3 4 6 3 0 10 14 16 11 8 9 8 13 15 14 8 15 22 23 21 12 12 9 12 14 12
6 4 5 3 3 7 10 9 15 12 3 7 9 7 2 6 8 10 3 3 7 2 2 1 6 5 8 9 14 18 19 23 22 23 25 25 27 4 1 7 14 18 17 16 12
7 7 5 5 5 5 5 6 5 9 2 2 4 3 2 4 4 3 5 6 6 4 3 3 3 3 10 11 14 13 21 20 22 25 23 20 11 4 1 7 15 21 23 22 20
Wind_Direction
315 322 326 326 327 327 327 325 323 322 321 320 320 319 320 317 311 303 292 278 262 232 224 214 213 208 201 198 187 160 224 245 244 196 217 197 242 210 254 268 245 228 242 267 282
295 297 298 301 304 305 306 306 307 307 307 308 310 310 312 314 311 302 282 262 234 222 221 222 216 205 196 184 200 215 232 249 233 223 250 257 245 283 262 266 262 262 259 270 270
287 289 292 294 295 297 298 299 297 298 299 302 304 305 310 320 317 234 150 130 145 196 217 217 217 201 209 193 205 195 242 244 236 245 260 271 268 259 265 272 266 270 284 269 276
286 289 290 288 292 295 295 295 295 296 298 298 299 299 301 307 297 205 216 253 282 254 224 212 202 189 222 219 208 243 243 246 266 244 255 268 283 259 246 261 276 285 282 273 278
279 283 286 291 292 292 292 292 293 294 294 295 296 295 296 273 258 269 268 271 269 252 226 217 200 198 224 220 212 238 262 259 259 263 265 272 266 268 265 269 282 282 285 289 277
273 277 283 287 292 294 294 293 295 295 295 293 291 288 285 257 276 270 266 262 249 233 223 219 225 227 251 232 223 318 280 284 278 261 250 247 272 266 273 285 283 287 290 290 289
274 278 283 290 295 298 301 300 301 300 298 294 287 278 273 269 270 262 269 263 248 239 230 227 229 210 206 247 255 294 297 295 266 266 232 216 269 235 267 282 283 290 295 295 292
271 279 287 295 301 307 308 309 307 305 302 297 288 272 259 273 269 262 262 262 248 228 226 232 230 230 235 286 282 276 259 285 295 180 205 194 270 285 287 294 291 292 291 286 283
266 273 281 294 304 312 314 316 312 307 302 296 283 241 265 274 289 276 264 251 243 224 221 224 200 204 222 242 270 231 269 257 291 234 135 206 278 276 282 296 288 287 284 282 287
259 269 282 298 311 321 325 326 313 298 289 297 266 242 251 281 303 287 276 218 193 190 167 172 166 214 195 213 251 274 260 255 260 284 251 271 269 282 288 287 280 281 279 285 292
252 261 275 294 314 328 334 344 329 309 267 245 266 258 276 277 274 275 240 178 159 166 198 174 211 213 233 229 250 286 274 279 276 283 297 289 293 291 286 283 274 277 282 295 295
250 255 263 275 300 325 331 334 322 297 293 279 268 257 253 254 266 268 195 177 183 210 140 183 235 237 279 292 254 262 272 275 281 278 290 294 300 286 283 270 277 278 293 295 308
256 263 266 275 290 315 345 341 339 331 263 282 266 269 272 271 240 245 202 206 201 192 209 248 266 280 219 246 264 255 266 278 283 304 286 305 283 276 284 288 274 309 289 324 343
261 268 271 274 284 225 302 352 14 332 267 255 302 12 148 155 82 285 205 179 152 270 232 256 302 269 269 258 264 280 288 274 282 294 289 4 296 308 294 283 317 322 28 50 65
256 263 259 236 225 219 190 123 8 334 281 70 133 157 141 144 141 41 170 161 226 173 211 263 194 165 219 239 194 261 8 276 273 269 300 251 269 10 298 292 69 47 73 46 67
264 265 226 222 220 236 185 17 343 109 240 138 161 165 162 181 169 143 160 147 148 202 218 273 284 255 262 200 206 100 277 256 220 268 262 263 225 142 112 110 48 74 48 62 41
275 255 236 243 229 200 202 192 195 207 290 185 169 171 266 179 183 252 183 179 192 265 281 294 270 218 206 237 165 226 309 319 280 228 274 97 276 276 295 223 295 34 71 49 43
245 232 236 227 228 186 183 128 224 170 216 4 147 150 216 188 206 190 253 270 195 222 300 289 296 184 174 214 264 241 235 211 277 276 290 306 257 289 238 317 42 48 41 34 30
232 232 226 225 209 193 145 230 237 183 205 176 10 278 269 202 277 237 243 279 271 187 214 256 255 222 213 194 228 167 208 208 207 315 277 256 267 288 339 79 45 39 33 28 23
240 248 252 227 201 207 163 214 235 238 150 212 242 185 230 161 269 251 238 133 235 198 278 307 282 233 260 167 201 214 121 201 121 227 239 267 288 283 254 70 45 26 25 14 7
223 210 225 205 189 182 238 242 252 225 210 233 250 255 255 270 251 271 262 250 244 135 93 50 239 263 167 206 244 214 223 224 293 207 250 279 278 26 98 88 46 37 21 11 12
188 189 185 166 178 197 231 201 214 236 228 231 275 253 253 264 269 259 252 240 136 284 277 256 229 257 265 273 272 280 260 244 241 248 234 241 251 256 106 107 52 57 73 28 12
176 160 171 180 206 209 201 210 232 203 224 201 247 215 202 241 273 245 259 70 31 40 346 20 234 264 260 244 114 223 259 258 271 258 253 258 250 342 280 306 37 27 22 0 344
160 143 173 211 227 202 228 243 226 191 226 225 245 238 243 265 236 265 267 99 53 34 338 1 260 275 269 291 328 272 252 258 262 258 284 272 287 296 297 312 7 360 341 319 318
170 187 168 187 222 207 209 223 185 189 226 93 212 169 128 256 277 247 261 320 67 25 77 255 267 280 280 294 289 270 279 270 267 274 264 282 278 275 291 307 328 334 333 318 305
165 157 162 135 137 172 211 235 242 235 245 233 259 291 275 247 248 282 268 209 273 57 111 35 270 291 277 267 264 283 275 267 270 270 268 267 269 327 66 322 314 318 326 316 296
183 164 144 151 164 177 202 211 165 147 64 145 133 124 224 248 233 243 235 261 260 241 213 248 244 252 264 289 308 279 257 273 278 277 275 275 298 145 254 321 313 309 317 310 303